Location: Grolley
(46.8340°N, 7.0737°E)
Time: 00:34:00
(UTC+00:00)

Daily predictions for brighter satellites

Satellite Brightness Start Highest point End
(mag) Time Altitude Azimuth Time Altitude Azimuth Time Altitude Azimuth
Cosmos 1980 Rocket 4.4 02:35:08 19° NE 02:35:41 19° NE 02:39:40 10° E
ATLAS 2AS CENTAUR R/B 4.5 02:49:28 23° N 02:51:06 25° NNE 02:57:09 10° ENE
CZ-4C R/B 3.7 03:07:23 30° NNE 03:07:23 30° NNE 03:10:40 10° NE
Lacrosse 5 4.0 03:07:46 21° SE 03:07:49 21° ESE 03:11:36 10° ENE
CZ-2C R/B 4.4 03:04:14 10° NE 03:08:16 25° E 03:11:53 11° SE
Cosmos 1697 Rocket 3.4 03:17:54 51° ENE 03:17:54 51° ENE 03:23:02 10° SE
COSMOS 2406 3.9 03:23:10 49° NNE 03:23:10 49° NNE 03:27:18 10° NNE
Cosmos 2123 Rocket 4.3 03:21:03 10° N 03:27:12 63° ENE 03:33:20 10° SSE
USA 234 4.1 03:23:10 10° ENE 03:29:01 37° N 03:29:34 36° NNW
Cosmos 1821 Rocket 4.3 03:40:58 51° N 03:40:58 51° N 03:45:31 10° N
Cosmos 2082 Rocket 3.4 03:34:49 13° S 03:39:34 41° ESE 03:44:53 10° NE
Cosmos 2221 3.0 03:54:29 57° SE 03:54:29 57° SE 03:58:13 10° SSE
Lacrosse 5 rocket 3.6 03:56:20 14° NNE 03:56:20 14° NNE 03:57:12 10° NE
CZ-4B R/B 3.6 03:57:27 10° NNE 04:00:42 44° E 04:00:42 44° E
Cosmos 1833 Rocket 2.6 04:01:13 46° SSW 04:02:57 87° ESE 04:08:37 10° NNE
Cosmos 923 Rocket 4.0 04:01:47 43° NNW 04:03:32 79° ENE 04:08:45 10° SSE
Cosmos 1535 Rocket 4.3 03:58:39 10° SSW 04:04:53 74° W 04:11:04 10° N
SL-24 R/B 4.2 04:00:43 10° N 04:05:37 82° W 04:10:26 10° S
COSMO-SKYMED 1 4.0 04:01:48 10° SE 04:05:48 37° ENE 04:09:49 10° N
FALCON 9 DEB 4.2 04:10:28 44° E 04:10:28 44° E 04:13:00 10° ENE
SL-16 R/B 4.0 04:04:52 10° N 04:09:42 28° NE 04:14:31 10° ESE
SJ 16-02 3.3 04:12:41 10° SSE 04:16:30 29° E 04:20:19 10° NE
Okean O Rocket 4.1 04:16:14 10° NE 04:19:42 23° E 04:23:09 10° SSE
Meteor 2-2 Rocket 4.2 04:14:23 10° N 04:20:04 88° ENE 04:25:42 10° S
Cosmos 1980 Rocket 2.2 04:16:57 24° NNW 04:20:36 84° ENE 04:26:18 10° SSE
Cosmos 2322 Rocket 3.9 04:16:53 10° N 04:21:47 29° NE 04:26:40 10° ESE
SL-4 R/B 2.9 04:23:08 42° NNW 04:23:57 47° N 04:28:39 10° ENE
IDEFIX/ARIANE 42P 3.9 04:20:27 10° N 04:22:56 24° NNW 04:22:56 24° NNW
Shenzhou-11 Module 3.8 04:26:28 24° SE 04:26:28 24° SE 04:28:10 10° ESE
Gbstr 26 Del rocket 4.4 04:24:49 18° S 04:26:58 29° SE 04:30:14 10° E
COSMOS 2455 3.9 04:22:48 12° NNW 04:28:03 41° NE 04:33:43 10° ESE
Cosmos 1898 Rocket 4.4 04:23:28 10° S 04:28:28 49° ESE 04:33:32 10° NNE
MSX 4.1 04:29:38 10° N 04:35:01 43° WNW 04:37:19 29° WSW
Cosmos 2369 4.1 04:34:19 38° W 04:35:20 41° WSW 04:40:40 10° S
Meteor 1-31 Rocket 2.7 04:33:21 10° N 04:37:08 58° WNW 04:37:44 50° WSW
Meteor 1-27 4.4 04:31:42 10° NNW 04:37:21 52° W 04:42:59 10° SSW
H-2A R/B 3.2 04:35:31 10° N 04:39:11 37° NW 04:39:11 37° NW
GENESIS II 4.5 04:41:31 47° W 04:42:01 50° WSW 04:45:55 10° SSE
Cosmos 1869 3.1 04:39:09 15° NNW 04:42:21 79° W 04:46:15 10° S
ATLAS 2AS CENTAUR R/B 3.6 04:36:55 12° NW 04:44:01 51° NE 04:51:01 10° ESE
Cosmos 1937 Rocket 4.5 04:39:14 10° S 04:44:10 48° ESE 04:49:06 10° NNE
Cosmos 1484 Rocket 2.8 04:40:44 10° NNE 04:44:44 83° ESE 04:48:45 10° S
Cosmos 2360 4.3 04:42:09 23° NW 04:45:33 54° WSW 04:51:06 10° S
Meteor PRIRODA 3.5 04:42:27 10° N 04:46:07 71° WNW 04:49:46 10° SSW
CZ-2C R/B 2.6 04:42:00 10° N 04:46:43 44° WNW 04:51:14 10° SW
ASTEX 1 3.5 04:41:55 10° SSW 04:46:44 52° W 04:51:36 10° NNW
Cosmos 1934 Rocket 4.4 04:40:58 10° SW 04:46:47 38° WNW 04:52:42 10° N
ISS -1.5 04:48:32 14° SSW 04:48:32 14° SSW 04:49:38 10° S
Cosmos 2100 Rocket 4.4 04:42:23 10° S 04:48:31 67° E 04:54:39 10° NNE
Lacrosse 5 1.8 04:47:01 23° SW 04:50:17 83° NW 04:55:23 10° NE
CZ-4B R/B 4.2 04:45:51 10° NNE 04:51:02 47° E 04:56:15 10° S
SKYMED 2 3.5 04:49:30 10° S 04:53:50 72° WSW 04:58:11 10° NNW
CZ-4C R/B 3.7 04:52:34 19° NW 04:54:32 22° NNW 04:59:31 10° NNE
USA 116 3.4 04:51:52 10° SSE 04:54:59 72° ENE 04:58:21 10° N
Cosmos 2278 4.2 04:53:17 23° NW 04:56:07 38° WSW 05:01:21 10° S
Cosmos 1697 Rocket 3.5 04:59:43 24° WNW 05:01:14 27° WSW 05:05:53 10° SSW
Cosmos 2084 Rocket 3.9 05:00:15 27° W 05:02:11 42° NW 05:06:27 10° NNE
Cosmos 1892 2.8 04:58:51 10° S 05:02:37 74° E 05:06:26 10° NNE
Cosmos 967 Rocket 4.4 04:58:02 10° SW 05:04:21 72° NW 05:10:48 10° NNE
Cosmos 1328 Rocket 4.3 05:00:25 10° N 05:04:42 53° ENE 05:08:55 10° SSE
COSMOS 2406 4.4 05:05:16 20° WNW 05:06:33 22° NW 05:10:56 10° N
BREEZE-M DEB (TANK) 2.4 05:05:14 27° W 05:06:46 65° SSW 05:09:24 10° ESE
FENGYUN 3A 3.9 05:01:37 10° NNE 05:07:05 76° ESE 05:12:29 10° S
USA 234 3.9 05:05:02 10° E 05:11:13 47° NNE 05:16:55 12° NW
STARLINK-52 3.3 05:10:27 25° W 05:12:14 56° NNW 05:15:43 10° ENE
Helios 1A Rocket 3.0 05:08:16 10° NNE 05:12:25 80° ESE 05:16:30 10° SSW
PSLV R/B 4.0 05:09:15 10° N 05:12:53 43° WNW 05:16:34 10° SW
Cosmos 2112 Rocket 4.4 05:08:56 11° NW 05:13:41 41° WSW 05:18:39 10° S
Cosmos 1151 Rocket 3.5 05:11:09 10° N 05:15:32 64° E 05:19:52 10° SSE
CZ-4B DEB 4.1 05:10:13 10° NNE 05:15:42 75° WNW 05:21:09 10° SSW
Cosmos 1408 3.4 05:14:32 10° S 05:18:09 56° E 05:21:47 10° NNE
Cosmos 1076 Rocket 4.2 05:16:04 10° SW 05:19:56 31° WNW 05:23:50 10° N
Cosmos 1680 Rocket 4.3 05:17:35 12° NW 05:21:45 30° W 05:26:20 10° SSW
Cosmos 2082 Rocket 2.7 05:18:25 10° WSW 05:23:42 37° NW 05:29:01 10° NNE
In-Cosmos 22 Rocket 4.1 05:19:33 10° SSW 05:24:50 63° WNW 05:30:17 10° N
METEOR-M 4.1 05:19:41 10° N 05:25:02 75° WNW 05:30:21 10° SSW
Okean 3 Rocket 3.6 05:21:00 10° SSW 05:25:29 59° WNW 05:29:58 10° N
DMSP B5D1-3 4.5 05:21:30 10° S 05:26:37 77° WSW 05:31:47 10° NNW
Cosmos 1408 Rocket 3.8 05:22:29 10° S 05:26:46 74° E 05:31:06 10° NNE
STARLINK-29 3.6 05:24:47 18° W 05:27:04 44° NNW 05:30:26 10° NE
BREEZE-M DEB (TANK) 4.0 05:26:59 15° W 05:28:47 28° SSW 05:33:34 10° SE
STARLINK-80 4.1 05:25:22 10° SW 05:29:06 54° SE 05:32:51 10° ENE
Cosmos 2173 Rocket 4.0 05:22:55 10° SSW 05:29:10 68° W 05:35:23 10° N
Cosmos 2058 3.7 05:25:43 10° SW 05:29:29 31° WNW 05:33:16 10° N
Cosmos 2221 4.3 05:31:28 13° W 05:31:28 13° W 05:32:55 10° WSW
Cosmos 1825 2.8 05:29:25 10° S 05:33:07 61° E 05:36:51 10° NNE
Lacrosse 5 rocket 3.0 05:32:06 10° NW 05:34:36 17° N 05:37:06 10° NE
CZ-4B R/B 4.3 05:33:43 10° NNW 05:35:43 14° WNW 05:36:48 13° W
Cosmos 1766 Rocket 3.6 05:33:00 10° SSW 05:37:15 57° WNW 05:41:33 10° N
SL-27 R/B 3.1 05:34:25 10° SW 05:37:23 30° WNW 05:40:23 10° N
STARLINK-48 4.3 05:35:36 10° SW 05:39:23 52° SE 05:43:11 10° ENE
COSMOS 2487 4.0 05:36:51 10° S 05:40:06 39° ESE 05:43:22 10° NE
STARLINK-67 4.0 05:38:13 12° NW 05:40:17 27° NNE 05:42:37 10° ENE
COSMO-SKYMED 1 3.7 05:38:33 10° SSW 05:42:04 24° W 05:45:35 10° NW
STARLINK-60 4.0 05:39:30 13° WNW 05:42:08 33° NNW 05:45:15 10° NE
ADEOS Rocket 4.1 05:37:21 10° SSE 05:45:00 63° ENE 05:52:25 10° N
FALCON 9 DEB 4.0 05:43:50 11° W 05:46:52 35° NNW 05:50:04 10° NE
Cosmos 1833 Rocket 4.0 05:43:34 10° W 05:47:39 20° NW 05:51:46 10° N
Cosmos 990 Rocket 4.4 05:43:39 10° SW 05:48:30 40° WNW 05:53:24 10° N
ALOS 2.7 05:46:35 10° N 05:50:57 40° WNW 05:55:17 10° SW
Cosmos 2228 Rocket 3.5 05:49:28 10° N 05:54:03 73° E 05:58:38 10° SSE
SL-16 R/B 2.3 05:48:37 10° NNW 05:54:12 59° WSW 05:59:45 10° S
Radarsat Rocket 3.9 05:48:22 10° NNE 05:54:17 85° WNW 06:00:09 10° SSW
NOSS 3-4 (A) 4.0 05:47:53 10° NW 05:54:53 85° NE 06:02:35 10° SE
NOSS 3-4 (C) 4.0 05:47:59 10° NW 05:54:59 85° NE 06:02:41 10° SE
SJ 16-02 2.1 05:51:08 10° WSW 05:55:01 30° WNW 05:58:57 10° N
Okean O Rocket 2.0 05:52:08 10° N 05:56:11 39° WNW 06:00:13 10° SW
Cosmos 2237 Rocket 4.5 05:53:22 10° N 05:56:38 15° NE 05:59:54 10° ENE
Cosmos 2360 Rocket 2.5 05:53:01 10° NNW 05:58:43 71° ENE 06:04:23 10° SE
SMAP 3.3 05:55:37 10° NNE 06:00:18 80° ESE 06:04:58 10° S
